Weather History for KAXS - November, 2012

Change the Weather History Date:

Monday, November 26, 2012

  Actual Average (KLTS) Record (KLTS)
Temperature  
Mean Temperature 46 °F -  
Max Temperature 57 °F 55 °F 73 °F (2003)
Min Temperature 35 °F 34 °F 19 °F (2010)
Degree Days  
Heating Degree Days 19    
Moisture  
Dew Point 29 °F    
Average Humidity 57    
Maximum Humidity 87    
Minimum Humidity 36    
Precipitation  
Precipitation 0.00 in - - ()
Sea Level Pressure  
Sea Level Pressure 30.10 in    
Wind  
Wind Speed 13 mph (North)    
Max Wind Speed 29 mph    
Max Gust Speed 37 mph    
Visibility 10 miles    
Events      
Averages and records for this station are not official NWS values.
T = Trace of Precipitation, MM = Missing Value Source: NWS Daily Summary

Daily Weather History Graph

Daily Weather History Graph

Search for Another Location

Airport or City:

Trip Planner

Search our weather history database for the weather conditions in past years. The results will help you decide how hot, cold, wet, or windy it might be!

Date:

Astronomy

Nov. 26, 2012 Rise Set
Actual Time 7:22 AM CST 5:27 PM CST
Civil Twilight 6:54 AM CST 5:54 PM CST
Nautical Twilight 6:23 AM CST 6:25 PM CST
Astronomical Twilight 5:53 AM CST 6:55 PM CST
Moon 4:18 PM CST 5:36 AM CST
Length of Visible Light 10h 59m
Length of Day
10h 05m
Waxing Gibbous, 97% of the Moon is Illuminated
Nov 26
Waxing Gibbous
Nov 28
Full
Dec 6
Last Quarter
Dec 13
New
Dec 19
First Quarter

Hourly Weather History & Observations

Time (CST) Temp. Windchill Dew Point Humidity Pressure Visibility Wind Dir Wind Speed Gust Speed Precip Events Conditions
12:15 AM 41.0 °F 37.1 °F 32.0 °F 70% 29.84 in 10.0 mi NNE 5.8 mph - N/A   Clear
12:35 AM 41.0 °F 39.0 °F 32.0 °F 70% 29.84 in 10.0 mi North 3.5 mph - N/A   Clear
12:55 AM 41.0 °F 37.1 °F 32.0 °F 70% 29.85 in 10.0 mi NW 5.8 mph - N/A   Clear
1:15 AM 39.2 °F 37.0 °F 32.0 °F 75% 29.85 in 10.0 mi NW 3.5 mph - N/A   Clear
1:35 AM 37.4 °F 33.8 °F 32.0 °F 81% 29.85 in 10.0 mi North 4.6 mph - N/A   Clear
1:55 AM 37.4 °F 32.8 °F 32.0 °F 81% 29.84 in 10.0 mi NNW 5.8 mph - N/A   Clear
2:15 AM 37.4 °F 31.4 °F 32.0 °F 81% 29.84 in 10.0 mi North 8.1 mph - N/A   Clear
2:35 AM 37.4 °F 31.4 °F 32.0 °F 81% 29.83 in 10.0 mi North 8.1 mph - N/A   Clear
2:55 AM 37.4 °F 33.8 °F 32.0 °F 81% 29.84 in 10.0 mi North 4.6 mph - N/A   Clear
3:15 AM 37.4 °F 32.8 °F 32.0 °F 81% 29.85 in 10.0 mi NW 5.8 mph - N/A   Clear
3:35 AM 37.4 °F 33.8 °F 32.0 °F 81% 29.85 in 10.0 mi NNW 4.6 mph - N/A   Clear
3:55 AM 35.6 °F 30.7 °F 32.0 °F 87% 29.85 in 10.0 mi North 5.8 mph - N/A   Clear
4:15 AM 37.4 °F 32.8 °F 32.0 °F 81% 29.85 in 10.0 mi North 5.8 mph - N/A   Clear
4:35 AM 37.4 °F 31.4 °F 32.0 °F 81% 29.85 in 10.0 mi North 8.1 mph - N/A   Clear
4:55 AM 37.4 °F 33.8 °F 32.0 °F 81% 29.86 in 10.0 mi NW 4.6 mph - N/A   Clear
5:15 AM 39.2 °F 35.0 °F 32.0 °F 75% 29.87 in 10.0 mi NNW 5.8 mph - N/A   Clear
5:35 AM 39.2 °F 32.0 °F 32.0 °F 75% 29.88 in 10.0 mi North 11.5 mph - N/A   Clear
6:15 AM 41.0 °F 35.2 °F 32.0 °F 70% 29.91 in 10.0 mi North 9.2 mph - N/A   Clear
6:35 AM 37.4 °F 32.8 °F 32.0 °F 81% 29.92 in 10.0 mi NNW 5.8 mph - N/A   Clear
6:55 AM 37.4 °F 28.5 °F 32.0 °F 81% 29.93 in 10.0 mi North 15.0 mph - N/A   Clear
7:15 AM 39.2 °F 30.8 °F 32.0 °F 75% 29.94 in 10.0 mi North 15.0 mph - N/A   Clear
7:35 AM 39.2 °F 30.8 °F 32.0 °F 75% 29.95 in 10.0 mi North 15.0 mph - N/A   Clear
7:55 AM 41.0 °F 32.5 °F 32.0 °F 70% 29.97 in 10.0 mi North 17.3 mph - N/A   Clear
8:15 AM 41.0 °F 32.2 °F 32.0 °F 70% 29.99 in 10.0 mi North 18.4 mph 24.2 mph N/A   Clear
8:35 AM 42.8 °F 33.5 °F 32.0 °F 66% 30.02 in 10.0 mi North 23.0 mph 26.5 mph N/A   Clear
8:55 AM 42.8 °F 33.8 °F 32.0 °F 66% 30.03 in 10.0 mi North 21.9 mph 27.6 mph N/A   Clear
9:15 AM 42.8 °F 33.3 °F 32.0 °F 66% 30.04 in 10.0 mi North 24.2 mph 32.2 mph N/A   Clear
9:35 AM 44.6 °F 35.3 °F 32.0 °F 61% 30.05 in 10.0 mi North 26.5 mph 31.1 mph N/A   Clear
9:55 AM 46.4 °F 38.7 °F 32.0 °F 57% 30.05 in 10.0 mi North 20.7 mph 28.8 mph N/A   Clear
10:15 AM 46.4 °F 37.9 °F 32.0 °F 57% 30.06 in 10.0 mi North 25.3 mph 29.9 mph N/A   Clear
10:35 AM 48.2 °F - 32.0 °F 54% 30.07 in 10.0 mi North 24.2 mph 31.1 mph N/A   Clear
11:15 AM 50.0 °F - 32.0 °F 50% 30.09 in 10.0 mi North 23.0 mph - N/A   Clear
11:35 AM 51.8 °F - 32.0 °F 47% 30.10 in 10.0 mi North 23.0 mph - N/A   Clear
11:55 AM 51.8 °F - 32.0 °F 47% 30.11 in 10.0 mi North 21.9 mph 26.5 mph N/A   Clear
12:15 PM 53.6 °F - 32.0 °F 44% 30.11 in 10.0 mi North 21.9 mph 27.6 mph N/A   Clear
12:35 PM 53.6 °F - 32.0 °F 44% 30.11 in 10.0 mi North 23.0 mph 29.9 mph N/A   Clear
12:55 PM 55.4 °F - 32.0 °F 41% 30.11 in 10.0 mi North 21.9 mph 28.8 mph N/A   Clear
1:15 PM 55.4 °F - 32.0 °F 41% 30.12 in 10.0 mi North 20.7 mph - N/A   Clear
1:35 PM 57.2 °F - 32.0 °F 38% 30.12 in 10.0 mi North 24.2 mph - N/A   Clear
1:55 PM 57.2 °F - 30.2 °F 36% 30.13 in 10.0 mi North 25.3 mph 33.4 mph N/A   Clear
2:15 PM 55.4 °F - 30.2 °F 38% 30.14 in 7.0 mi North 26.5 mph 33.4 mph N/A   Clear
2:35 PM 55.4 °F - 30.2 °F 38% 30.15 in 10.0 mi NNE 26.5 mph 34.5 mph N/A   Clear
2:55 PM 55.4 °F - 30.2 °F 38% 30.15 in 7.0 mi North 26.5 mph 36.8 mph N/A   Clear
3:15 PM 55.4 °F - 30.2 °F 38% 30.16 in 10.0 mi North 28.8 mph 32.2 mph N/A   Clear
3:35 PM 55.4 °F - 30.2 °F 38% 30.18 in 10.0 mi North 25.3 mph 31.1 mph N/A   Clear
4:15 PM 53.6 °F - 28.4 °F 38% 30.20 in 10.0 mi NNE 21.9 mph 33.4 mph N/A   Clear
4:35 PM 53.6 °F - 28.4 °F 38% 30.21 in 10.0 mi North 25.3 mph 31.1 mph N/A   Clear
4:55 PM 51.8 °F - 28.4 °F 41% 30.23 in 10.0 mi North 23.0 mph 27.6 mph N/A   Clear
5:15 PM 51.8 °F - 28.4 °F 41% 30.24 in 10.0 mi North 23.0 mph 28.8 mph N/A   Clear
5:35 PM 50.0 °F - 28.4 °F 43% 30.25 in 10.0 mi North 20.7 mph 29.9 mph N/A   Clear
5:55 PM 50.0 °F - 28.4 °F 43% 30.26 in 10.0 mi North 21.9 mph 31.1 mph N/A   Clear
6:15 PM 48.2 °F - 28.4 °F 46% 30.28 in 10.0 mi NNE 18.4 mph 24.2 mph N/A   Clear
6:35 PM 46.4 °F 39.0 °F 26.6 °F 46% 30.30 in 10.0 mi NNE 19.6 mph - N/A   Clear
7:15 PM 44.6 °F 38.1 °F 24.8 °F 46% 30.33 in 10.0 mi North 13.8 mph - N/A   Clear
7:35 PM 44.6 °F 37.2 °F 21.2 °F 39% 30.33 in 10.0 mi NNE 17.3 mph 24.2 mph N/A   Clear
7:55 PM 44.6 °F 38.1 °F 21.2 °F 39% 30.35 in 10.0 mi North 13.8 mph - N/A   Clear
8:15 PM 44.6 °F 37.4 °F 19.4 °F 37% 30.36 in 10.0 mi North 16.1 mph - N/A   Clear
8:35 PM 42.8 °F 34.5 °F 21.2 °F 42% 30.37 in 10.0 mi North 18.4 mph - N/A   Clear
8:55 PM 42.8 °F 34.8 °F 21.2 °F 42% 30.38 in 10.0 mi NNE 17.3 mph 25.3 mph N/A   Clear
9:15 PM 42.8 °F 34.5 °F 21.2 °F 42% 30.38 in 10.0 mi NNE 18.4 mph - N/A   Clear
9:35 PM 41.0 °F 31.6 °F 23.0 °F 49% 30.38 in 10.0 mi North 20.7 mph 25.3 mph N/A   Clear
9:55 PM 41.0 °F 31.9 °F 23.0 °F 49% 30.38 in 10.0 mi North 19.6 mph 26.5 mph N/A   Clear
10:15 PM 41.0 °F 32.5 °F 23.0 °F 49% 30.39 in 10.0 mi North 17.3 mph - N/A   Clear
10:35 PM 41.0 °F 31.6 °F 23.0 °F 49% 30.40 in 10.0 mi NNE 20.7 mph 26.5 mph N/A   Clear
10:55 PM 41.0 °F 33.1 °F 23.0 °F 49% 30.40 in 10.0 mi NNE 15.0 mph 25.3 mph N/A   Clear
11:15 PM 39.2 °F 30.2 °F 23.0 °F 52% 30.41 in 10.0 mi NNE 17.3 mph - N/A   Clear
11:35 PM 37.4 °F 28.5 °F 23.0 °F 56% 30.41 in 10.0 mi NNE 15.0 mph - N/A   Clear